When you browse on this site, cookies collect data to enhance your experience and personalize the content and advertising you see.
Visit our Privacy Policy to learn more. By continuing to use the site, you agree to this use of cookies and data.
  • In France
  • List of Countries
  • For 7 days
  • Water Temperature
  • Weather Map
  • Weather Widgets
  • user-avatar
    Login

    Hourly Weather Serowe

    Today, 9 December, Monday

    Time Temperature Precipitation Wind Pressure Humidity
    00:00 +22°C° 0.1 mm 5 mps 662 mmHg 80%
    01:00 +21°C° 0.1 mm 6 mps 662 mmHg 82%
    02:00 +21°C° 0 mm 5 mps 662 mmHg 82%
    03:00 +21°C° 0.1 mm 5 mps 662 mmHg 84%
    04:00 +21°C° 0.1 mm 5 mps 662 mmHg 86%
    05:00 +20°C° 0.1 mm 5 mps 662 mmHg 88%
    06:00 +21°C° 0 mm 5 mps 663 mmHg 85%
    07:00 +22°C° 0 mm 6 mps 663 mmHg 82%
    08:00 +22°C° 0 mm 6 mps 664 mmHg 81%
    09:00 +23°C° 0.3 mm 6 mps 664 mmHg 75%
    10:00 +26°C° 0.3 mm 6 mps 664 mmHg 70%
    11:00 +27°C° 0.3 mm 6 mps 665 mmHg 64%
    12:00 +27°C° 0.7 mm 6 mps 664 mmHg 66%
    13:00 +26°C° 0.7 mm 6 mps 664 mmHg 68%
    14:00 +26°C° 0 mm 5 mps 664 mmHg 68%
    15:00 +26°C° 0.7 mm 5 mps 663 mmHg 70%
    16:00 +25°C° 0.7 mm 5 mps 663 mmHg 71%
    17:00 +25°C° 0.7 mm 5 mps 662 mmHg 73%
    18:00 +23°C° 1.1 mm 5 mps 663 mmHg 76%
    19:00 +22°C° 1.1 mm 4 mps 663 mmHg 78%
    20:00 +22°C° 1.1 mm 3 mps 664 mmHg 81%
    21:00 +21°C° 0.4 mm 3 mps 664 mmHg 82%
    22:00 +21°C° 0.4 mm 4 mps 665 mmHg 83%
    23:00 +21°C° 0.4 mm 4 mps 665 mmHg 84%

    Tomorrow, 10 December, Tuesday

    Time Temperature Precipitation Wind Pressure Humidity
    00:00 +20°C° 1.6 mm 4 mps 665 mmHg 87%
    01:00 +20°C° 1.6 mm 4 mps 664 mmHg 89%
    02:00 +20°C° 1.6 mm 4 mps 664 mmHg 92%
    03:00 +20°C° 1.1 mm 4 mps 664 mmHg 92%
    04:00 +20°C° 1.1 mm 4 mps 664 mmHg 92%
    05:00 +19°C° 1.1 mm 4 mps 664 mmHg 92%
    06:00 +19°C° 0.2 mm 4 mps 664 mmHg 91%
    07:00 +19°C° 0.2 mm 5 mps 664 mmHg 91%
    08:00 +19°C° 0.2 mm 5 mps 665 mmHg 90%
    09:00 +20°C° 0 mm 5 mps 665 mmHg 87%
    10:00 +21°C° 0 mm 5 mps 665 mmHg 83%
    11:00 +22°C° 0 mm 4 mps 665 mmHg 80%
    12:00 +23°C° 0.2 mm 4 mps 665 mmHg 76%
    13:00 +25°C° 0.2 mm 4 mps 664 mmHg 71%
    14:00 +26°C° 0.2 mm 4 mps 664 mmHg 66%
    15:00 +26°C° 0.7 mm 4 mps 664 mmHg 68%
    16:00 +25°C° 0.7 mm 4 mps 664 mmHg 70%
    17:00 +25°C° 0.7 mm 4 mps 663 mmHg 73%
    18:00 +23°C° 0.4 mm 4 mps 664 mmHg 77%
    19:00 +22°C° 0.4 mm 4 mps 664 mmHg 82%
    20:00 +20°C° 0.4 mm 4 mps 664 mmHg 87%
    21:00 +20°C° 0.3 mm 4 mps 664 mmHg 89%
    22:00 +20°C° 0.3 mm 4 mps 665 mmHg 90%
    23:00 +19°C° 0.3 mm 3 mps 665 mmHg 92%

    Day after tomorrow, 11 December, Wednesday

    Time Temperature Precipitation Wind Pressure Humidity
    00:00 +19°C° 0 mm 3 mps 664 mmHg 92%
    01:00 +19°C° 0 mm 3 mps 664 mmHg 92%
    02:00 +19°C° 0 mm 3 mps 663 mmHg 92%
    03:00 +19°C° 0 mm 3 mps 663 mmHg 92%
    04:00 +19°C° 0 mm 3 mps 663 mmHg 92%
    05:00 +19°C° 0 mm 3 mps 663 mmHg 91%
    06:00 +19°C° 0 mm 2 mps 664 mmHg 90%
    07:00 +19°C° 0 mm 2 mps 664 mmHg 88%
    08:00 +19°C° 0 mm 2 mps 665 mmHg 87%
    09:00 +21°C° 0 mm 2 mps 665 mmHg 81%
    10:00 +23°C° 0 mm 2 mps 665 mmHg 75%
    11:00 +24°C° 0 mm 2 mps 665 mmHg 69%
    12:00 +26°C° 0 mm 2 mps 665 mmHg 59%
    13:00 +28°C° 0 mm 2 mps 665 mmHg 49%
    14:00 +30°C° 0 mm 2 mps 665 mmHg 39%
    15:00 +30°C° 0 mm 2 mps 664 mmHg 39%
    16:00 +29°C° 0 mm 2 mps 664 mmHg 38%
    17:00 +29°C° 0 mm 2 mps 664 mmHg 37%
    18:00 +28°C° 0 mm 2 mps 664 mmHg 40%
    19:00 +27°C° 0 mm 2 mps 664 mmHg 44%
    20:00 +25°C° 0 mm 1 mps 664 mmHg 47%
    21:00 +25°C° 0 mm 1 mps 664 mmHg 49%
    22:00 +24°C° 0 mm 1 mps 665 mmHg 50%
    23:00 +24°C° 0 mm 1 mps 665 mmHg 52%

    12 December, Thursday

    Time Temperature Precipitation Wind Pressure Humidity
    00:00 +23°C° 0 mm 1 mps 664 mmHg 52%
    01:00 +23°C° 0 mm 1 mps 664 mmHg 52%
    02:00 +23°C° 0 mm 1 mps 664 mmHg 52%
    03:00 +23°C° 0 mm 1 mps 664 mmHg 52%
    04:00 +22°C° 0 mm 1 mps 664 mmHg 52%
    05:00 +22°C° 0 mm 1 mps 663 mmHg 53%
    06:00 +24°C° 0 mm 1 mps 664 mmHg 48%
    07:00 +26°C° 0 mm 1 mps 665 mmHg 43%
    08:00 +26°C° 0 mm 0 mps 666 mmHg 39%
    09:00 +29°C° 0 mm 1 mps 666 mmHg 34%
    10:00 +31°C° 0 mm 2 mps 666 mmHg 29%
    11:00 +34°C° 0 mm 3 mps 666 mmHg 25%
    12:00 +34°C° 0 mm 3 mps 666 mmHg 23%
    13:00 +35°C° 0 mm 3 mps 665 mmHg 22%
    14:00 +36°C° 0 mm 3 mps 665 mmHg 20%
    15:00 +35°C° 0 mm 3 mps 665 mmHg 21%
    16:00 +35°C° 0 mm 3 mps 665 mmHg 21%
    17:00 +35°C° 0 mm 3 mps 664 mmHg 21%
    18:00 +33°C° 0 mm 3 mps 664 mmHg 27%
    19:00 +30°C° 0 mm 2 mps 664 mmHg 32%
    20:00 +28°C° 0 mm 2 mps 664 mmHg 37%
    21:00 +27°C° 0 mm 2 mps 665 mmHg 40%
    22:00 +27°C° 0 mm 2 mps 665 mmHg 42%
    23:00 +26°C° 0 mm 2 mps 665 mmHg 45%

    13 December, Friday

    Time Temperature Precipitation Wind Pressure Humidity
    00:00 +25°C° 0 mm 3 mps 665 mmHg 52%
    01:00 +25°C° 0 mm 4 mps 665 mmHg 59%
    02:00 +23°C° 0 mm 5 mps 665 mmHg 66%
    03:00 +22°C° 0 mm 5 mps 665 mmHg 72%
    04:00 +22°C° 0 mm 5 mps 665 mmHg 77%
    05:00 +21°C° 0 mm 5 mps 665 mmHg 83%
    06:00 +22°C° 0 mm 6 mps 666 mmHg 79%
    07:00 +23°C° 0 mm 6 mps 666 mmHg 75%
    08:00 +24°C° 0 mm 6 mps 667 mmHg 71%
    09:00 +27°C° 0 mm 6 mps 667 mmHg 62%
    10:00 +29°C° 0 mm 5 mps 667 mmHg 53%
    11:00 +32°C° 0 mm 5 mps 668 mmHg 44%
    12:00 +33°C° 0 mm 4 mps 667 mmHg 38%
    13:00 +35°C° 0 mm 3 mps 667 mmHg 33%
    14:00 +36°C° 0 mm 3 mps 666 mmHg 27%
    15:00 +35°C° 0 mm 3 mps 666 mmHg 28%
    16:00 +35°C° 0 mm 3 mps 666 mmHg 28%
    17:00 +34°C° 0 mm 2 mps 665 mmHg 29%
    18:00 +32°C° 0 mm 2 mps 665 mmHg 32%
    19:00 +31°C° 0 mm 2 mps 665 mmHg 35%
    20:00 +29°C° 0 mm 2 mps 666 mmHg 38%
    21:00 +29°C° 0 mm 3 mps 666 mmHg 40%
    22:00 +28°C° 0 mm 4 mps 666 mmHg 42%
    23:00 +28°C° 0 mm 5 mps 666 mmHg 45%

    14 December, Saturday

    Time Temperature Precipitation Wind Pressure Humidity
    00:00 +27°C° 0 mm 5 mps 666 mmHg 49%
    01:00 +26°C° 0 mm 5 mps 665 mmHg 54%
    02:00 +25°C° 0 mm 5 mps 665 mmHg 58%
    03:00 +23°C° 0 mm 5 mps 665 mmHg 63%
    04:00 +22°C° 0 mm 4 mps 665 mmHg 68%
    05:00 +22°C° 0 mm 4 mps 665 mmHg 73%
    06:00 +23°C° 0 mm 4 mps 666 mmHg 69%
    07:00 +25°C° 0 mm 4 mps 666 mmHg 65%
    08:00 +26°C° 0 mm 5 mps 667 mmHg 61%
    09:00 +28°C° 0 mm 4 mps 667 mmHg 51%
    10:00 +32°C° 0 mm 4 mps 667 mmHg 41%
    11:00 +35°C° 0 mm 4 mps 668 mmHg 30%
    12:00 +36°C° 0 mm 3 mps 667 mmHg 28%
    13:00 +37°C° 0 mm 2 mps 667 mmHg 25%
    14:00 +37°C° 0 mm 1 mps 666 mmHg 22%
    15:00 +36°C° 0 mm 1 mps 666 mmHg 22%
    16:00 +36°C° 0 mm 1 mps 665 mmHg 23%
    17:00 +35°C° 0 mm 1 mps 665 mmHg 23%
    18:00 +34°C° 0 mm 1 mps 665 mmHg 26%
    19:00 +32°C° 0 mm 1 mps 665 mmHg 28%
    20:00 +31°C° 0 mm 1 mps 665 mmHg 30%
    21:00 +31°C° 0 mm 1 mps 665 mmHg 31%
    22:00 +30°C° 0 mm 1 mps 665 mmHg 31%
    23:00 +30°C° 0 mm 1 mps 665 mmHg 32%
    Show more